EN

Hourly Weather Lachowce

Today, 3 August, Tuesday

Time Temperature Precipitation Wind Pressure Humidity
00:00 +15°C° 0 mm 2 mps 740 mmHg 91%
01:00 +14°C° 0 mm 2 mps 740 mmHg 91%
02:00 +13°C° 0 mm 3 mps 740 mmHg 92%
03:00 +14°C° 0 mm 2 mps 740 mmHg 92%
04:00 +13°C° 0 mm 2 mps 740 mmHg 93%
05:00 +13°C° 0 mm 2 mps 740 mmHg 93%
06:00 +14°C° 0 mm 3 mps 741 mmHg 87%
07:00 +16°C° 0 mm 3 mps 741 mmHg 81%
08:00 +18°C° 0 mm 3 mps 741 mmHg 75%
09:00 +19°C° 0 mm 3 mps 742 mmHg 67%
10:00 +21°C° 0 mm 3 mps 742 mmHg 59%
11:00 +22°C° 0 mm 3 mps 742 mmHg 51%
12:00 +22°C° 0 mm 3 mps 742 mmHg 51%
13:00 +22°C° 0 mm 3 mps 741 mmHg 51%
14:00 +24°C° 0 mm 3 mps 741 mmHg 51%
15:00 +24°C° 0 mm 2 mps 741 mmHg 53%
16:00 +23°C° 0 mm 2 mps 741 mmHg 55%
17:00 +23°C° 0 mm 1 mps 741 mmHg 57%
18:00 +22°C° 0 mm 1 mps 741 mmHg 61%
19:00 +20°C° 0 mm 1 mps 741 mmHg 65%
20:00 +19°C° 0 mm 1 mps 741 mmHg 69%
21:00 +17°C° 0 mm 2 mps 741 mmHg 71%
22:00 +17°C° 0 mm 2 mps 741 mmHg 73%
23:00 +16°C° 0 mm 2 mps 741 mmHg 75%

Tomorrow, 4 August, Wednesday

Time Temperature Precipitation Wind Pressure Humidity
00:00 +16°C° 0 mm 3 mps 741 mmHg 78%
01:00 +16°C° 0 mm 3 mps 741 mmHg 81%
02:00 +14°C° 0 mm 3 mps 741 mmHg 84%
03:00 +14°C° 0.2 mm 3 mps 741 mmHg 87%
04:00 +15°C° 0.2 mm 2 mps 741 mmHg 89%
05:00 +14°C° 0.2 mm 2 mps 741 mmHg 92%
06:00 +16°C° 0.1 mm 2 mps 741 mmHg 88%
07:00 +17°C° 0.1 mm 3 mps 741 mmHg 84%
08:00 +18°C° 0.1 mm 3 mps 741 mmHg 80%
09:00 +20°C° 0 mm 3 mps 741 mmHg 73%
10:00 +22°C° 0 mm 3 mps 741 mmHg 66%
11:00 +24°C° 0 mm 2 mps 741 mmHg 58%
12:00 +24°C° 0.1 mm 2 mps 740 mmHg 61%
13:00 +23°C° 0.1 mm 2 mps 740 mmHg 64%
14:00 +23°C° 0.1 mm 2 mps 740 mmHg 67%
15:00 +24°C° 0.1 mm 2 mps 740 mmHg 65%
16:00 +24°C° 0.1 mm 2 mps 740 mmHg 64%
17:00 +25°C° 0.1 mm 2 mps 739 mmHg 63%
18:00 +23°C° 0.3 mm 2 mps 739 mmHg 70%
19:00 +21°C° 0.3 mm 2 mps 739 mmHg 77%
20:00 +19°C° 0.3 mm 2 mps 739 mmHg 84%
21:00 +18°C° 0.2 mm 2 mps 739 mmHg 87%
22:00 +17°C° 0.2 mm 2 mps 739 mmHg 90%
23:00 +17°C° 0.2 mm 3 mps 739 mmHg 93%

Day after tomorrow, 5 August, Thursday

Time Temperature Precipitation Wind Pressure Humidity
00:00 +16°C° 0.1 mm 3 mps 739 mmHg 93%
01:00 +16°C° 0.1 mm 2 mps 739 mmHg 93%
02:00 +16°C° 0.1 mm 2 mps 738 mmHg 92%
03:00 +16°C° 0 mm 2 mps 738 mmHg 93%
04:00 +16°C° 0 mm 2 mps 738 mmHg 94%
05:00 +15°C° 0 mm 2 mps 738 mmHg 94%
06:00 +16°C° 0 mm 2 mps 738 mmHg 91%
07:00 +17°C° 0 mm 2 mps 738 mmHg 87%
08:00 +18°C° 0 mm 3 mps 738 mmHg 83%
09:00 +19°C° 0 mm 2 mps 738 mmHg 80%
10:00 +20°C° 0 mm 2 mps 737 mmHg 77%
11:00 +21°C° 0 mm 2 mps 737 mmHg 74%
12:00 +23°C° 0 mm 2 mps 737 mmHg 69%
13:00 +25°C° 0 mm 2 mps 737 mmHg 64%
14:00 +26°C° 0 mm 1 mps 737 mmHg 60%
15:00 +26°C° 0 mm 1 mps 736 mmHg 63%
16:00 +26°C° 0 mm 1 mps 736 mmHg 66%
17:00 +25°C° 0 mm 1 mps 735 mmHg 70%
18:00 +24°C° 0.7 mm 2 mps 735 mmHg 77%
19:00 +21°C° 0.7 mm 2 mps 734 mmHg 85%
20:00 +19°C° 0.7 mm 3 mps 734 mmHg 92%
21:00 +19°C° 3.3 mm 3 mps 733 mmHg 94%
22:00 +19°C° 3.3 mm 4 mps 733 mmHg 96%
23:00 +19°C° 3.3 mm 5 mps 732 mmHg 97%

6 August, Friday

Time Temperature Precipitation Wind Pressure Humidity
00:00 +19°C° 1 mm 4 mps 732 mmHg 97%
01:00 +18°C° 1 mm 4 mps 732 mmHg 97%
02:00 +18°C° 1 mm 3 mps 731 mmHg 97%
03:00 +18°C° 0.1 mm 4 mps 731 mmHg 96%
04:00 +16°C° 0.1 mm 5 mps 731 mmHg 94%
05:00 +16°C° 0.1 mm 5 mps 731 mmHg 92%
06:00 +16°C° 0 mm 6 mps 731 mmHg 93%
07:00 +16°C° 0 mm 7 mps 731 mmHg 93%
08:00 +16°C° 0 mm 8 mps 731 mmHg 94%
09:00 +17°C° 0 mm 8 mps 732 mmHg 90%
10:00 +17°C° 0 mm 8 mps 732 mmHg 86%
11:00 +18°C° 0 mm 9 mps 733 mmHg 83%
12:00 +20°C° 0 mm 8 mps 733 mmHg 79%
13:00 +20°C° 0 mm 8 mps 733 mmHg 76%
14:00 +21°C° 0 mm 7 mps 734 mmHg 73%
15:00 +21°C° 0.1 mm 7 mps 734 mmHg 73%
16:00 +21°C° 0.1 mm 6 mps 734 mmHg 73%
17:00 +20°C° 0.1 mm 5 mps 735 mmHg 74%
18:00 +19°C° 0 mm 4 mps 735 mmHg 79%
19:00 +18°C° 0 mm 4 mps 735 mmHg 84%
20:00 +17°C° 0 mm 3 mps 735 mmHg 89%
21:00 +16°C° 0 mm 2 mps 736 mmHg 91%
22:00 +15°C° 0 mm 2 mps 736 mmHg 92%
23:00 +15°C° 0 mm 2 mps 736 mmHg 94%

7 August, Saturday

Time Temperature Precipitation Wind Pressure Humidity
00:00 +15°C° 0 mm 2 mps 736 mmHg 95%
01:00 +14°C° 0 mm 2 mps 737 mmHg 95%
02:00 +14°C° 0 mm 2 mps 737 mmHg 95%
03:00 +14°C° 0 mm 2 mps 737 mmHg 95%
04:00 +14°C° 0 mm 2 mps 737 mmHg 96%
05:00 +14°C° 0 mm 2 mps 738 mmHg 96%
06:00 +15°C° 0 mm 2 mps 738 mmHg 91%
07:00 +17°C° 0 mm 2 mps 738 mmHg 86%
08:00 +18°C° 0 mm 2 mps 738 mmHg 81%
09:00 +20°C° 0 mm 3 mps 738 mmHg 74%
10:00 +21°C° 0 mm 3 mps 739 mmHg 67%
11:00 +24°C° 0 mm 3 mps 739 mmHg 61%
12:00 +24°C° 0 mm 3 mps 739 mmHg 58%
13:00 +25°C° 0 mm 3 mps 739 mmHg 55%
14:00 +25°C° 0 mm 3 mps 739 mmHg 52%
15:00 +26°C° 0 mm 2 mps 739 mmHg 52%
16:00 +26°C° 0 mm 2 mps 739 mmHg 51%
17:00 +26°C° 0 mm 1 mps 739 mmHg 50%
18:00 +25°C° 0 mm 1 mps 739 mmHg 56%
19:00 +23°C° 0 mm 1 mps 739 mmHg 62%
20:00 +21°C° 0 mm 1 mps 739 mmHg 69%
21:00 +19°C° 0 mm 2 mps 740 mmHg 72%
22:00 +19°C° 0 mm 2 mps 740 mmHg 75%
23:00 +18°C° 0 mm 3 mps 740 mmHg 78%

8 August, Sunday

Time Temperature Precipitation Wind Pressure Humidity
00:00 +17°C° 0 mm 3 mps 740 mmHg 80%
01:00 +17°C° 0 mm 3 mps 740 mmHg 82%
02:00 +17°C° 0 mm 3 mps 740 mmHg 83%
03:00 +16°C° 0 mm 3 mps 740 mmHg 85%
04:00 +16°C° 0 mm 3 mps 740 mmHg 86%
05:00 +16°C° 0 mm 3 mps 740 mmHg 87%
06:00 +18°C° 0 mm 4 mps 740 mmHg 81%
07:00 +20°C° 0 mm 5 mps 740 mmHg 76%
08:00 +21°C° 0 mm 5 mps 740 mmHg 70%
09:00 +23°C° 0 mm 5 mps 740 mmHg 65%
10:00 +26°C° 0 mm 5 mps 740 mmHg 60%
11:00 +27°C° 0 mm 6 mps 740 mmHg 55%
12:00 +28°C° 0 mm 5 mps 740 mmHg 51%
13:00 +29°C° 0 mm 5 mps 740 mmHg 48%
14:00 +30°C° 0 mm 5 mps 740 mmHg 44%
15:00 +30°C° 0 mm 5 mps 740 mmHg 49%
16:00 +29°C° 0 mm 5 mps 740 mmHg 54%
17:00 +28°C° 0 mm 5 mps 740 mmHg 59%
18:00 +26°C° 0 mm 5 mps 741 mmHg 65%
19:00 +23°C° 0 mm 5 mps 742 mmHg 72%
20:00 +21°C° 0 mm 5 mps 742 mmHg 79%
21:00 +20°C° 0.1 mm 4 mps 743 mmHg 84%
22:00 +19°C° 0.1 mm 3 mps 743 mmHg 90%
23:00 +18°C° 0.1 mm 3 mps 744 mmHg 95%
Show more